[[{"header":{"parameterUnit":"m.s-1","parameterCategory":1,"la1":30.2991,"la2":30.254,"lo1":-89.0895,"lo2":-89.0444,"dy":0.0017,"dx":0.0017,"nx":28,"ny":28,"refTime":"2024-07-28T03:00:00:Z","depth":0,"parameterNumber":2,"parameterNumberName":"U-component_of_WINDS"},"data":[0,0,0,0,0,0,0,0,0,0,0,0,0,0,0,0,0,0,0,0,0,0,0,0,0,0,0,0,0,0,0,0,0,0,0,0,0,0,0,0,0,0,0,0,0,0,0,0,0,0,0,0,0,0,0,0,0,0,0.1534,0.1534,0,0.1596,0.1597,0.1597,0.1635,0.1636,0.1636,0.1636,0.17,0.1702,0.1703,0,0,0,0,0,0,0,0,0,0,0,0,0,0.1446,0.1447,0.1533,0.1534,0.1535,0.1596,0.1597,0.1598,0.1635,0.1636,0.1636,0.1636,0.17,0.1701,0.1703,0,0,0,0,0,0,0,0,0,0,0,0,0,0.1493,0.1447,0.1533,0.1561,0.1564,0.1596,0.1597,0.1598,0.1635,0.1636,0.1636,0.1636,0.1699,0.1701,0.1704,0.1712,0,0,0.1711,0.1712,0,0,0,0,0,0,0,0,0.1491,0.1497,0.1556,0.1559,0.1563,0.1608,0.1589,0.1636,0.1635,0.1608,0.1636,0.1636,0.1669,0.1674,0.1685,0.1715,0.1718,0.1711,0.1712,0.1713,0.1714,0,0,0,0,0,0,0,0.1487,0.1494,0.1558,0.1557,0.1561,0.157,0.1577,0.1598,0.1637,0.1611,0.1614,0.162,0.1671,0.1683,0.1687,0.1719,0.1711,0.1713,0.1714,0.1715,0.1758,0.1758,0,0,0,0,0,0,0.148,0.1491,0.1556,0.156,0.1527,0.1571,0.1579,0.1593,0.1636,0.1643,0.162,0.1622,0.1679,0.1684,0.1689,0.1702,0.1713,0.1715,0.1717,0.1758,0.1758,0.1758,0,0,0,0,0,0,0.1478,0.1485,0.1554,0.1526,0.1536,0.1573,0.1588,0.1594,0.1606,0.1644,0.165,0.1625,0.1679,0.1686,0.1706,0.1704,0.1716,0.1718,0.1758,0.1758,0.1758,0.1727,0,0,0,0,0,0,0.1475,0.1484,0.1488,0.1526,0.1537,0.1569,0.1588,0.1595,0.161,0.1613,0.165,0.1657,0.168,0.1702,0.1708,0.1708,0.172,0.1759,0.1758,0.1758,0.1728,0.1725,0.1723,0,0,0,0,0,0.1472,0.1477,0.1488,0.1496,0.1543,0.1569,0.1576,0.1602,0.161,0.1614,0.1638,0.1655,0.1703,0.1704,0.1711,0.1711,0.1759,0.1758,0.1758,0.1729,0.1726,0.1723,0,0,0,0,0,0,0.1438,0.1483,0.1495,0.1514,0.1537,0.1576,0.1582,0.1598,0.162,0.1622,0.1655,0.1663,0.1679,0.1697,0.1697,0.1721,0.1733,0.1734,0.1709,0.1706,0.1703,0.1699,0.1722,0,0,0,0,0,0.1433,0.1451,0.1489,0.1501,0.1512,0.1545,0.1557,0.1576,0.1602,0.1612,0.1637,0.1662,0.1682,0.1695,0.1716,0.173,0.1739,0.1734,0.1731,0.1729,0.1729,0.1737,0.1735,0.1756,0.1756,0.1756,0,0,0.1423,0.1449,0.1458,0.1495,0.1516,0.1533,0.1553,0.1571,0.1584,0.1615,0.1635,0.1654,0.1683,0.17,0.1709,0.1716,0.1726,0.1728,0.1726,0.1728,0.1736,0.1735,0.1733,0.1755,0.1755,0.1755,0,0,0.1412,0.1434,0.1446,0.1466,0.1497,0.1518,0.1521,0.1557,0.157,0.1591,0.1614,0.163,0.1665,0.1684,0.1699,0.1694,0.1711,0.17,0.1687,0.1694,0.1692,0.1691,0.1688,0.1687,0.17,0.17,0.17,0,0.1395,0.1422,0.145,0.1466,0.1481,0.151,0.1522,0.154,0.1576,0.1585,0.1592,0.1636,0.1658,0.1679,0.1677,0.1688,0.1692,0.1696,0.169,0.1689,0.1688,0.1686,0.1685,0.1698,0.1698,0.1699,0.1699,0,0.1399,0.1418,0.1424,0.1457,0.1473,0.1487,0.1517,0.1529,0.1545,0.1566,0.1586,0.1612,0.1639,0.1645,0.1662,0.1668,0.1672,0.1684,0.1697,0.1684,0.1683,0.1682,0.1696,0.1697,0.1697,0.1697,0,0,0.1371,0.1418,0.142,0.1435,0.147,0.1485,0.15,0.1525,0.1535,0.1558,0.1571,0.1599,0.161,0.1626,0.1646,0.1652,0.1645,0.1663,0.1665,0.1659,0.1653,0.1643,0.1641,0.1656,0.1656,0.1656,0.165,0,0.1365,0.1393,0.1418,0.1437,0.1453,0.148,0.1492,0.1515,0.1534,0.155,0.1572,0.1591,0.1604,0.1614,0.1622,0.1644,0.1644,0.1645,0.1668,0.1668,0.166,0.1641,0.1631,0.1624,0.165,0.165,0.1649,0,0.1362,0.1384,0.1404,0.1437,0.1445,0.1455,0.148,0.1496,0.1522,0.1535,0.1552,0.1572,0.1588,0.1598,0.1621,0.162,0.1631,0.1643,0.1644,0.1647,0.1658,0.1643,0.1623,0.1621,0.1649,0.1649,0.1649,0,0.1338,0.1373,0.1389,0.1401,0.1439,0.1446,0.1463,0.1489,0.1502,0.1523,0.1532,0.1555,0.1568,0.1585,0.161,0.1615,0.1629,0.1642,0.164,0.1639,0.1642,0.1641,0.1622,0.1649,0.1649,0.1649,0.1649,0,0.1329,0.134,0.1379,0.1389,0.1401,0.143,0.1442,0.146,0.1483,0.1496,0.152,0.1532,0.1565,0.1581,0.16,0.1615,0.1621,0.1631,0.1636,0.1629,0.1628,0.1637,0.1638,0.1649,0.1649,0.1649,0.1649,0,0.1305,0.1331,0.135,0.1385,0.1393,0.1401,0.1431,0.1441,0.1461,0.1477,0.1483,0.1514,0.1534,0.156,0.1588,0.1601,0.1613,0.1622,0.1605,0.1608,0.1604,0.1604,0.159,0.1589,0.1616,0.1616,0.1616,0,0.1297,0.1307,0.1341,0.1352,0.1367,0.1385,0.1398,0.1426,0.1439,0.1468,0.1474,0.1496,0.1514,0.1544,0.1569,0.159,0.1599,0.1593,0.1603,0.1594,0.1598,0.1597,0.1598,0.159,0.159,0.1589,0.1589,0,0.1281,0.1293,0.1312,0.1334,0.1349,0.1368,0.1389,0.1396,0.1428,0.1441,0.1461,0.1475,0.1503,0.1524,0.1548,0.1565,0.1582,0.1586,0.1586,0.1579,0.1568,0.1573,0.1598,0.1586,0.1586,0.1587,0.1587,0.1587,0.1265,0.1273,0.1299,0.1318,0.1336,0.1354,0.1365,0.1386,0.1403,0.1428,0.1443,0.1463,0.1487,0.1521,0.1537,0.1552,0.1559,0.156,0.156,0.156,0.1557,0.1566,0.1556,0.1557,0.1557,0.1557,0.1557,0,0.1249,0.1266,0.1284,0.1311,0.1326,0.134,0.1363,0.1375,0.1391,0.1412,0.143,0.1452,0.1472,0.1498,0.152,0.1527,0.1535,0.1531,0.1531,0.1534,0.155,0.1547,0.1524,0.1524,0.1524,0.1524,0.1524,0.1524,0.1242,0.1258,0.1273,0.1297,0.1314,0.1333,0.1345,0.1361,0.1378,0.1402,0.1418,0.1435,0.1458,0.1481,0.1499,0.1506,0.1513,0.1507,0.1516,0.153,0.1533,0.1536,0.1533,0.1508,0.1508,0.1499,0.1499,0.1499]},{"header":{"parameterUnit":"m.s-1","parameterCategory":1,"la1":30.2991,"la2":30.254,"lo1":-89.0895,"lo2":-89.0444,"dy":0.0017,"dx":0.0017,"nx":28,"ny":28,"refTime":"2024-07-28T03:00:00:Z","depth":0,"parameterNumber":3,"parameterNumberName":"V-component_of_WINDS"},"data":[0,0,0,0,0,0,0,0,0,0,0,0,0,0,0,0,0,0,0,0,0,0,0,0,0,0,0,0,0,0,0,0,0,0,0,0,0,0,0,0,0,0,0,0,0,0,0,0,0,0,0,0,0,0,0,0,0,0,3.6221,3.6221,0,3.6154,3.6154,3.6153,3.609,3.6089,3.6089,3.6088,3.6016,3.6015,3.6013,0,0,0,0,0,0,0,0,0,0,0,0,0,3.6292,3.6291,3.6221,3.622,3.622,3.6155,3.6154,3.6153,3.609,3.6089,3.6088,3.6088,3.6016,3.6015,3.6013,0,0,0,0,0,0,0,0,0,0,0,0,0,3.6247,3.6291,3.6221,3.6181,3.6176,3.6155,3.6154,3.6152,3.6091,3.6089,3.6088,3.6087,3.6017,3.6015,3.6013,3.6025,0,0,3.6008,3.6007,0,0,0,0,0,0,0,0,3.6249,3.6244,3.6188,3.6184,3.6179,3.613,3.6152,3.611,3.6091,3.6123,3.6088,3.6087,3.6054,3.6049,3.6039,3.6022,3.6019,3.6007,3.6006,3.6006,3.6005,0,0,0,0,0,0,0,3.6253,3.6247,3.6195,3.6187,3.6181,3.6165,3.6157,3.6144,3.6096,3.612,3.6115,3.6109,3.6052,3.6041,3.6037,3.6018,3.6007,3.6006,3.6005,3.6004,3.6007,3.6008,0,0,0,0,0,0,3.6262,3.625,3.6197,3.6193,3.6212,3.6165,3.6156,3.6146,3.6096,3.6087,3.611,3.6106,3.6045,3.6039,3.6034,3.6046,3.6006,3.6004,3.6003,3.6006,3.6007,3.6009,0,0,0,0,0,0,3.6264,3.6258,3.6199,3.622,3.6211,3.6165,3.6154,3.6146,3.6135,3.6088,3.6079,3.6108,3.6044,3.6037,3.6028,3.6042,3.6003,3.6001,3.6005,3.6006,3.6008,3.6068,0,0,0,0,0,0,3.6267,3.6259,3.6264,3.6221,3.621,3.6196,3.6155,3.6145,3.6133,3.6127,3.6084,3.6076,3.6042,3.6031,3.6027,3.6039,3.6,3.6003,3.6005,3.6007,3.6065,3.6072,3.6078,0,0,0,0,0,3.6269,3.6283,3.6265,3.6259,3.6216,3.6197,3.6191,3.6153,3.6134,3.6138,3.6108,3.6077,3.6042,3.6031,3.6025,3.6037,3.6002,3.6005,3.6007,3.6062,3.607,3.6078,0,0,0,0,0,0,3.6327,3.6276,3.6256,3.6256,3.6231,3.6186,3.619,3.6163,3.6143,3.6138,3.6091,3.6082,3.6079,3.6057,3.6046,3.6046,3.6018,3.6019,3.6061,3.6069,3.6075,3.6081,3.5999,0,0,0,0,0,3.6341,3.6331,3.6286,3.629,3.6279,3.6237,3.6227,3.6201,3.6173,3.6162,3.6131,3.6104,3.6087,3.6076,3.6058,3.6061,3.6051,3.6067,3.6073,3.6079,3.6081,3.6081,3.6088,3.6017,3.6017,3.6017,0,0,3.6367,3.6338,3.6334,3.6301,3.6279,3.6269,3.6228,3.6219,3.6211,3.616,3.615,3.6127,3.6094,3.6092,3.6089,3.6073,3.6098,3.6082,3.6087,3.6086,3.6085,3.6091,3.6097,3.6019,3.6019,3.6018,0,0,3.641,3.6387,3.6388,3.6368,3.6335,3.6307,3.6308,3.6267,3.625,3.624,3.6202,3.6191,3.6162,3.6141,3.6126,3.6162,3.6133,3.6158,3.6192,3.6193,3.6198,3.6203,3.6216,3.6222,3.616,3.616,3.616,0,3.6447,3.6431,3.6392,3.6386,3.6373,3.6327,3.6328,3.6309,3.6272,3.6264,3.6247,3.6211,3.6185,3.6178,3.6187,3.6176,3.6175,3.6162,3.6201,3.6205,3.6209,3.6221,3.6226,3.6163,3.6163,3.6162,3.6162,0,3.6478,3.6468,3.6473,3.644,3.6427,3.6424,3.6384,3.6376,3.635,3.6324,3.6315,3.6283,3.6258,3.6254,3.6228,3.6243,3.6234,3.621,3.618,3.622,3.623,3.6235,3.6168,3.6166,3.6165,3.6165,0,0,3.6555,3.6502,3.6504,3.6489,3.6451,3.6442,3.6437,3.6414,3.6408,3.6384,3.6378,3.6356,3.6333,3.6317,3.6288,3.629,3.6321,3.6265,3.6263,3.6277,3.6336,3.6355,3.6361,3.6302,3.6302,3.6303,3.6339,0,3.6592,3.6582,3.6548,3.6548,3.6538,3.6495,3.6491,3.6467,3.6442,3.643,3.6402,3.6387,3.6358,3.6348,3.6347,3.6318,3.6332,3.6314,3.6296,3.6296,3.6306,3.6366,3.6386,3.6421,3.6342,3.6343,3.6344,0,3.6634,3.6615,3.6615,3.6577,3.6572,3.6569,3.6545,3.6534,3.6505,3.6487,3.647,3.6439,3.6431,3.6403,3.6391,3.638,3.637,3.6355,3.6355,3.6352,3.6322,3.6365,3.6431,3.6437,3.635,3.6349,3.6349,0,3.6691,3.6665,3.6662,3.665,3.6606,3.6605,3.6587,3.6557,3.6546,3.6525,3.6517,3.6495,3.6483,3.6466,3.6429,3.6413,3.6422,3.6391,3.6406,3.6407,3.641,3.6411,3.6476,3.6404,3.6404,3.6404,3.6403,0,3.6736,3.6738,3.6687,3.6685,3.6686,3.6645,3.6647,3.6624,3.6598,3.6591,3.6552,3.6545,3.6497,3.6485,3.6456,3.6451,3.6446,3.6431,3.6423,3.6434,3.6436,3.6427,3.6424,3.6405,3.6405,3.6404,3.6404,0,3.68,3.6766,3.676,3.672,3.671,3.6712,3.6677,3.6673,3.6647,3.6638,3.6633,3.6591,3.6575,3.6537,3.651,3.6491,3.6493,3.6479,3.6504,3.6499,3.6517,3.6516,3.6579,3.6585,3.6509,3.651,3.651,0,3.6831,3.6832,3.6792,3.6785,3.6769,3.6758,3.6746,3.6707,3.6696,3.6665,3.6665,3.6646,3.6628,3.6604,3.6571,3.655,3.6535,3.6559,3.6532,3.6543,3.6536,3.6537,3.6537,3.6565,3.6566,3.6567,3.6567,0,3.689,3.6874,3.686,3.684,3.6828,3.681,3.679,3.6786,3.6741,3.6732,3.6716,3.6702,3.6676,3.6657,3.6632,3.6612,3.6582,3.6576,3.6579,3.659,3.6605,3.6598,3.652,3.6575,3.6574,3.6574,3.6573,3.6573,3.6939,3.6938,3.6911,3.6896,3.6877,3.686,3.6855,3.6828,3.6814,3.6791,3.6768,3.6754,3.6726,3.6689,3.6671,3.6659,3.6644,3.6647,3.6648,3.665,3.6655,3.6607,3.6654,3.6654,3.6653,3.6653,3.6653,0,3.6997,3.6977,3.6965,3.6939,3.6927,3.6902,3.6879,3.6871,3.686,3.6836,3.6821,3.6802,3.6784,3.675,3.6729,3.6726,3.6712,3.6722,3.6722,3.6718,3.6669,3.667,3.6734,3.6734,3.6734,3.6734,3.6734,3.6734,3.7025,3.7022,3.7003,3.699,3.697,3.6958,3.6947,3.693,3.6911,3.6893,3.6879,3.6857,3.6829,3.6806,3.6789,3.6779,3.6773,3.6787,3.6773,3.6729,3.6721,3.6714,3.6714,3.6786,3.6786,3.6823,3.6823,3.6823]}]]